Location: Aurora Center
(43.5271°N, 98.5894°W)
Time: 09:41:05
(UTC-05:00)

SR - All Passes

Search period start: 14 July 2024 00:00
Search period end: 24 July 2024 00:00
Orbit: 580 x 857 km, 66.7° (Epoch: 13 July)

Date Brightness Start Highest point End Pass type
(mag) Time Alt. Az. Time Alt. Az. Time Alt. Az.
14 Jul - 04:48:16 10° SE 04:50:07 12° ESE 04:51:57 10° E visible
14 Jul - 06:26:42 10° SW 06:31:24 76° WNW 06:35:48 10° NNE daylight
14 Jul - 08:12:05 10° WNW 08:13:55 12° NW 08:15:45 10° NNW daylight
14 Jul - 13:24:35 10° N 13:26:56 14° NE 13:29:17 10° ENE daylight
14 Jul - 15:05:01 10° NNW 15:09:17 83° WSW 15:13:44 10° SSE daylight
15 Jul - 05:34:28 10° S 05:39:00 48° ESE 05:43:15 10° NE visible
15 Jul - 07:17:25 10° W 07:21:01 22° NW 07:24:28 10° N daylight
15 Jul - 14:12:41 10° NNW 14:16:47 43° NE 14:21:00 10° SE daylight
15 Jul - 15:55:09 10° WNW 15:58:18 20° WSW 16:01:32 10° SSW daylight
16 Jul - 04:43:11 10° SSE 04:46:44 21° ESE 04:50:08 10° ENE visible
16 Jul - 06:23:53 10° SW 06:28:18 44° NW 06:32:30 10° NNE daylight
16 Jul - 13:20:44 10° N 13:24:04 22° NE 13:27:29 10° E daylight
16 Jul - 15:01:58 10° NW 15:06:04 45° WSW 15:10:20 10° S daylight
17 Jul - 05:31:06 10° SSW 05:35:47 85° ESE 05:40:11 10° NNE visible
17 Jul - 07:15:37 10° WNW 07:18:09 15° NW 07:20:37 10° N daylight
17 Jul - 12:29:30 10° NNE 12:31:08 12° NE 12:32:46 10° ENE daylight
17 Jul - 14:09:22 10° NNW 14:13:39 77° ENE 14:18:08 10° SE daylight
17 Jul - 15:53:42 10° W 15:54:53 11° WSW 15:56:05 10° WSW daylight
18 Jul - 04:39:07 10° S 04:43:25 37° ESE 04:47:29 10° NE visible
18 Jul - 06:21:24 10° WSW 06:25:17 27° NW 06:29:01 10° N daylight
18 Jul - 13:17:09 10° NNW 13:21:04 34° NE 13:25:08 10° ESE daylight
18 Jul - 14:59:10 10° NW 15:02:44 26° WSW 15:06:27 10° SSW daylight
19 Jul - 03:48:15 10° SSE 03:51:11 17° ESE 03:54:01 10° ENE visible
19 Jul - 05:28:05 10° SW 05:32:37 55° NW 05:36:55 10° NNE visible
19 Jul - 12:25:19 10° N 12:28:17 18° NE 12:31:19 10° E daylight
19 Jul - 14:06:12 10° NW 14:10:26 60° WSW 14:14:52 10° SSE daylight
20 Jul - 04:35:31 10° SSW 04:40:09 66° ESE 04:44:29 10° NE visible
20 Jul - 06:19:18 10° W 06:22:19 17° NW 06:25:17 10° N daylight
20 Jul - 13:13:44 10° NNW 13:17:58 59° NE 13:22:24 10° SE daylight
20 Jul - 14:56:55 10° WNW 14:59:20 15° WSW 15:01:48 10° SW daylight
21 Jul - 03:43:48 10° S 03:47:48 29° ESE 03:51:35 10° NE visible
21 Jul - 05:25:23 10° WSW 05:29:31 33° NW 05:33:28 10° NNE visible
21 Jul - 12:21:36 10° N 12:25:19 28° NE 12:29:09 10° ESE daylight
21 Jul - 14:03:14 10° NW 14:07:07 33° WSW 14:11:11 10° S daylight
22 Jul - 02:53:36 10° SE 02:55:37 13° ESE 02:57:34 10° E visible
22 Jul - 04:32:18 10° SW 04:36:54 71° WNW 04:41:15 10° NNE visible
22 Jul - 06:17:57 10° WNW 06:19:28 11° NW 06:20:59 10° NNW daylight
22 Jul - 11:29:56 10° N 11:32:27 15° NE 11:34:59 10° ENE daylight
22 Jul - 13:10:27 10° NW 13:14:45 78° WSW 13:19:16 10° SSE daylight
23 Jul - 03:39:58 10° SSW 03:44:27 50° ESE 03:48:42 10° NE visible
23 Jul - 05:23:04 10° W 05:26:30 21° NW 05:29:49 10° N visible
23 Jul - 12:18:04 10° NNW 12:22:13 46° NE 12:26:32 10° SE daylight
23 Jul - 14:00:38 10° WNW 14:03:43 19° WSW 14:06:54 10° SSW daylight
